Medford, WI

9:56 AM CDT on June 25, 2017 (GMT -0500)
Taylor County

Weather History for KMDZ - October, 2012

Change the Weather History Date:

Saturday, October 6, 2012

  Actual Average Record
Temperature  
Mean Temperature 37 °F -  
Max Temperature 42 °F 59 °F 82 °F (2007)
Min Temperature 32 °F 37 °F 20 °F (1976)
Degree Days  
Heating Degree Days 28    
Moisture  
Dew Point 27 °F    
Average Humidity 68    
Maximum Humidity 93    
Minimum Humidity 49    
Precipitation  
Precipitation 0.00 in - - ()
Sea Level Pressure  
Sea Level Pressure 30.10 in    
Wind  
Wind Speed 11 mph (NW)    
Max Wind Speed 18 mph    
Max Gust Speed 23 mph    
Visibility 10 miles    
Events Snow    
Averages and records for this station are not official NWS values.
T = Trace of Precipitation, MM = Missing Value Source: NWS Daily Summary

Daily Weather History Graph

Daily Weather History Graph

Search for Another Location

Airport or City:

Trip Planner

Search our weather history database for the weather conditions in past years. The results will help you decide how hot, cold, wet, or windy it might be!

Date:

Astronomy

Oct. 06, 2012 Rise Set
Actual Time 7:06 AM CDT 6:31 PM CDT
Civil Twilight 6:36 AM CDT 7:00 PM CDT
Nautical Twilight 6:02 AM CDT 7:34 PM CDT
Astronomical Twilight 5:28 AM CDT 8:08 PM CDT
Moon 10:35 PM CDT (10/6) 1:13 PM CDT (10/6)
Length of Visible Light 12h 23m
Length of Day
11h 25m
Waning Gibbous, 65% of the Moon is Illuminated
Oct 6
Waning Gibbous
Oct 8
Last Quarter
Oct 15
New
Oct 21
First Quarter
Oct 29
Full

Hourly Weather History & Observations

Time (CDT) Temp. Windchill Dew Point Humidity Pressure Visibility Wind Dir Wind Speed Gust Speed Precip Events Conditions
12:15 AM 37.4 °F 28.9 °F 28.4 °F 70% 29.99 in 10.0 mi WNW 13.8 mph 21.9 mph N/A   Overcast
12:35 AM 37.4 °F 28.9 °F 28.4 °F 70% 29.99 in 10.0 mi WNW 13.8 mph - N/A   Overcast
12:55 AM 37.4 °F 28.9 °F 28.4 °F 70% 29.99 in 10.0 mi WNW 13.8 mph 21.9 mph N/A   Overcast
1:15 AM 37.4 °F 29.3 °F 28.4 °F 70% 29.98 in 10.0 mi WNW 12.7 mph 19.6 mph N/A   Overcast
1:55 AM 37.4 °F 28.5 °F 28.4 °F 70% 29.99 in 10.0 mi WNW 15.0 mph 18.4 mph N/A   Overcast
2:15 AM 37.4 °F 29.3 °F 28.4 °F 70% 29.98 in 10.0 mi WNW 12.7 mph 18.4 mph N/A   Overcast
2:35 AM 35.6 °F 27.5 °F 30.2 °F 81% 29.99 in 10.0 mi WNW 11.5 mph 16.1 mph N/A   Overcast
2:55 AM 35.6 °F 27.1 °F 30.2 °F 81% 29.99 in 10.0 mi WNW 12.7 mph 19.6 mph N/A   Overcast
3:15 AM 35.6 °F 26.2 °F 30.2 °F 81% 29.99 in 10.0 mi WNW 15.0 mph 19.6 mph N/A   Overcast
3:35 AM 35.6 °F 26.2 °F 30.2 °F 81% 29.99 in 10.0 mi WNW 15.0 mph 18.4 mph N/A   Overcast
3:55 AM 35.6 °F 26.2 °F 30.2 °F 81% 29.99 in 10.0 mi NW 15.0 mph 19.6 mph N/A   Overcast
4:35 AM 35.6 °F 28.0 °F 28.4 °F 75% 30.01 in 10.0 mi NW 10.4 mph - N/A   Overcast
4:55 AM 35.6 °F 26.6 °F 30.2 °F 81% 30.01 in 10.0 mi NW 13.8 mph 20.7 mph N/A   Overcast
5:15 AM 35.6 °F 27.5 °F 30.2 °F 81% 30.01 in 7.0 mi WNW 11.5 mph - N/A Snow Light Snow
5:35 AM 33.8 °F 26.4 °F 30.2 °F 87% 30.02 in 5.0 mi NW 9.2 mph 16.1 mph N/A Snow Light Snow
5:55 AM 33.8 °F 24.3 °F 30.2 °F 87% 30.03 in 4.0 mi NW 13.8 mph - N/A Snow Light Snow
6:15 AM 33.8 °F 26.4 °F 30.2 °F 87% 30.04 in 7.0 mi WNW 9.2 mph - N/A Snow Light Snow
6:35 AM 33.8 °F 25.3 °F 30.2 °F 87% 30.04 in 10.0 mi WNW 11.5 mph - N/A   Mostly Cloudy
6:55 AM 33.8 °F 25.3 °F 30.2 °F 87% 30.05 in 10.0 mi WNW 11.5 mph - N/A   Mostly Cloudy
7:15 AM 32.0 °F 23.0 °F 30.2 °F 93% 30.06 in 10.0 mi WNW 11.5 mph - N/A   Scattered Clouds
7:35 AM 33.8 °F 25.8 °F 30.2 °F 87% 30.06 in 10.0 mi WNW 10.4 mph 16.1 mph N/A   Mostly Cloudy
7:55 AM 33.8 °F 25.3 °F 30.2 °F 87% 30.07 in 10.0 mi NW 11.5 mph - N/A   Mostly Cloudy
8:15 AM 33.8 °F 26.4 °F 30.2 °F 87% 30.08 in 10.0 mi NW 9.2 mph 20.7 mph N/A   Mostly Cloudy
8:35 AM 33.8 °F 24.8 °F 30.2 °F 87% 30.09 in 10.0 mi NW 12.7 mph 20.7 mph N/A   Overcast
8:55 AM 33.8 °F 24.8 °F 30.2 °F 87% 30.09 in 4.0 mi NW 12.7 mph 16.1 mph N/A Snow Light Snow
9:15 AM 35.6 °F 28.0 °F 30.2 °F 81% 30.10 in 10.0 mi NNW 10.4 mph 17.3 mph N/A   Mostly Cloudy
9:35 AM 35.6 °F 28.0 °F 30.2 °F 81% 30.11 in 10.0 mi NW 10.4 mph 18.4 mph N/A   Overcast
9:55 AM 37.4 °F 30.3 °F 28.4 °F 70% 30.11 in 10.0 mi NW 10.4 mph 20.7 mph N/A   Overcast
10:15 AM 37.4 °F 28.5 °F 28.4 °F 70% 30.12 in 10.0 mi NNW 15.0 mph 19.6 mph N/A   Overcast
10:35 AM 37.4 °F 28.9 °F 28.4 °F 70% 30.12 in 10.0 mi NW 13.8 mph 18.4 mph N/A   Mostly Cloudy
10:55 AM 39.2 °F 29.8 °F 28.4 °F 65% 30.12 in 10.0 mi NW 18.4 mph - N/A   Mostly Cloudy
11:15 AM 39.2 °F 31.6 °F 30.2 °F 70% 30.13 in 7.0 mi NW 12.7 mph 23.0 mph N/A   Mostly Cloudy
11:35 AM 39.2 °F 33.0 °F 30.2 °F 70% 30.13 in 10.0 mi NW 9.2 mph - N/A   Mostly Cloudy
11:55 AM 39.2 °F 33.6 °F 28.4 °F 65% 30.13 in 10.0 mi North 8.1 mph 18.4 mph N/A   Overcast
12:15 PM 39.2 °F 30.5 °F 30.2 °F 70% 30.14 in 10.0 mi NW 16.1 mph 21.9 mph N/A   Mostly Cloudy
12:35 PM 42.8 °F 36.6 °F 28.4 °F 57% 30.14 in 10.0 mi NW 11.5 mph 17.3 mph N/A   Mostly Cloudy
12:55 PM 42.8 °F 35.1 °F 28.4 °F 57% 30.14 in 10.0 mi NW 16.1 mph 20.7 mph N/A   Mostly Cloudy
1:15 PM 42.8 °F 36.2 °F 26.6 °F 53% 30.13 in 10.0 mi NNW 12.7 mph 19.6 mph N/A   Overcast
1:35 PM 42.8 °F 36.2 °F 26.6 °F 53% 30.13 in 10.0 mi NNW 12.7 mph 21.9 mph N/A   Overcast
1:55 PM 41.0 °F 34.7 °F 26.6 °F 57% 30.13 in 10.0 mi North 10.4 mph 16.1 mph N/A   Overcast
2:15 PM 41.0 °F 35.2 °F 26.6 °F 57% 30.13 in 10.0 mi NW 9.2 mph - N/A   Overcast
2:35 PM 41.0 °F 33.9 °F 24.8 °F 53% 30.13 in 10.0 mi NNW 12.7 mph 19.6 mph N/A   Overcast
2:55 PM 39.2 °F 32.5 °F 28.4 °F 65% 30.14 in 10.0 mi North 10.4 mph 18.4 mph N/A   Overcast
3:15 PM 39.2 °F 34.2 °F 26.6 °F 61% 30.14 in 10.0 mi NNW 6.9 mph - N/A   Overcast
3:35 PM 39.2 °F 32.5 °F 26.6 °F 61% 30.14 in 10.0 mi NW 10.4 mph - N/A   Overcast
3:55 PM 39.2 °F 34.2 °F 24.8 °F 56% 30.14 in 10.0 mi NNW 6.9 mph - N/A   Overcast
4:15 PM 39.2 °F 34.2 °F 23.0 °F 52% 30.13 in 10.0 mi NW 6.9 mph - N/A   Overcast
4:35 PM 39.2 °F 33.6 °F 21.2 °F 49% 30.14 in 10.0 mi NNW 8.1 mph - N/A   Overcast
4:55 PM 39.2 °F 32.5 °F 21.2 °F 49% 30.13 in 10.0 mi NW 10.4 mph - N/A   Overcast
5:15 PM 39.2 °F 32.5 °F 21.2 °F 49% 30.14 in 10.0 mi NW 10.4 mph 16.1 mph N/A   Overcast
5:35 PM 39.2 °F 35.0 °F 21.2 °F 49% 30.14 in 10.0 mi NNW 5.8 mph 16.1 mph N/A   Overcast
6:15 PM 39.2 °F 34.2 °F 24.8 °F 56% 30.15 in 10.0 mi NNW 6.9 mph - N/A   Overcast
6:35 PM 39.2 °F 35.9 °F 24.8 °F 56% 30.15 in 10.0 mi NNW 4.6 mph - N/A   Overcast
6:55 PM 37.4 °F 34.9 °F 24.8 °F 60% 30.15 in 10.0 mi NW 3.5 mph - N/A   Overcast
7:15 PM 37.4 °F - 24.8 °F 60% 30.16 in 10.0 mi Calm Calm - N/A   Overcast
7:35 PM 37.4 °F - 24.8 °F 60% 30.16 in 10.0 mi Calm Calm - N/A   Overcast
7:55 PM 37.4 °F - 24.8 °F 60% 30.16 in 10.0 mi Calm Calm - N/A   Overcast
8:15 PM 37.4 °F - 24.8 °F 60% 30.17 in 10.0 mi Calm Calm - N/A   Overcast
8:35 PM 37.4 °F - 24.8 °F 60% 30.17 in 10.0 mi Calm Calm - N/A   Overcast
8:55 PM 37.4 °F - 24.8 °F 60% 30.17 in 10.0 mi Calm Calm - N/A   Overcast
9:15 PM 37.4 °F - 24.8 °F 60% 30.17 in 10.0 mi Calm Calm - N/A   Overcast
9:35 PM 37.4 °F - 24.8 °F 60% 30.17 in 10.0 mi Calm Calm - N/A   Overcast
9:55 PM 37.4 °F 34.9 °F 24.8 °F 60% 30.17 in 10.0 mi West 3.5 mph - N/A   Overcast
10:15 PM 37.4 °F 34.9 °F 24.8 °F 60% 30.17 in 10.0 mi West 3.5 mph - N/A   Overcast
10:35 PM 35.6 °F 32.8 °F 24.8 °F 65% 30.17 in 10.0 mi West 3.5 mph - N/A   Overcast
10:55 PM 35.6 °F - 24.8 °F 65% 30.17 in 10.0 mi Calm Calm - N/A   Overcast
11:15 PM 35.6 °F - 24.8 °F 65% 30.16 in 10.0 mi Calm Calm - N/A   Overcast
11:35 PM 35.6 °F - 24.8 °F 65% 30.16 in 10.0 mi Calm Calm - N/A   Overcast
11:55 PM 35.6 °F - 24.8 °F 65% 30.16 in 10.0 mi Calm Calm - N/A   Overcast